Regional Weather Roundup
Issued by NWS

Home | Current Version | Previous Version | Text Only | Print | Product List | Glossary On
Versions: 1 2 3 4 5 6 7 8 9 10 11 12 13 14 15 16 17 18 19 20 21 22 23 24 25 26 27 28 29 30 31 32 33 34 35 36 37 38 39 40 41 42 43 44 45 46 47 48 49 50
000
ASUS45 KBOI 081210
RWRID

IDAHO REGIONAL WEATHER ROUNDUP
NATIONAL WEATHER SERVICE BOISE ID
500 AM MST THU DEC 08 2016

NOTE: "FAIR" INDICATES FEW OR NO CLOUDS BELOW 12000 FEET
WITH NO SIGNIFICANT WEATHER AND/OR OBSTRUCTIONS TO VISIBILITY

IDZ012-014-081300-
SOUTHWEST IDAHO


CITY           SKY/WX    TMP DP  RH WIND       PRES   REMARKS
BOISE          MOCLDY    18  11  74 SE10      30.30F WCI   6
CALDWELL       MOCLDY    18  13  80 E12       30.31F WCI   5
MOUNTAIN HOME  CLOUDY    18  13  80 SE10      30.28F WCI   7
$$

IDZ016-017-081300-
SOUTHCENTRAL IDAHO


CITY           SKY/WX    TMP DP  RH WIND       PRES   REMARKS
BURLEY         CLEAR      8   4  83 NE14      30.27F WCI  -8
JEROME         PTCLDY    13   7  77 NE24G31   30.26F WCI  -7
TWIN FALLS     PTCLDY    10   5  80 E12       30.25F WCI  -5
$$

IDZ019>023-081300-
SOUTHEAST IDAHO


CITY           SKY/WX    TMP DP  RH WIND       PRES   REMARKS
IDAHO FALLS    CLOUDY     3  -2  79 N3        30.31F
POCATELLO      CLOUDY    -4  -7  87 NE3       30.31F
REXBURG        CLOUDY    -2  -7  79 NE6       30.31F WCI -14
$$

IDZ006-010-011-018-031-032-081300-
CENTRAL IDAHO MOUNTAINS


CITY           SKY/WX    TMP DP  RH WIND       PRES   REMARKS
MCCALL         CLOUDY     1  -3  83 CALM      30.15F FOG
HAILEY         CLEAR      3  -6  66 NW10      30.26F WCI -12
STANLEY          N/A    -21 -27  73 CALM      30.18F
SALMON         CLOUDY    -4  -8  84 CALM      30.36F
CHALLIS        PTCLDY     1  -2  87 CALM      30.28F
$$

IDZ002-004-006-007-026-081300-
NORTHERN IDAHO


CITY           SKY/WX    TMP DP  RH WIND       PRES   REMARKS
LEWISTON       CLEAR     14  11  87 E6        30.37F WCI   5
LOWELL           N/A     17  12  80 CALM      30.46F
COEUR D`ALENE  CLEAR     11   6  81 NE8       30.37F WCI  -1
MULLAN PASS    CLOUDY    -1  -4  87 SE12G23   30.09F FOG     WCI -18
$$



USA.gov is the U.S. government's official web portal to all federal, state and local government web resources and services.